ATLAS 5 CENTAUR R/B, 41623

Orbit data source: Space-Track

ATLAS 5 CENTAUR R/B, 41623 is space debris in HEO originally from a launch on Fri, 24 Jun 2016 UTC launched from the Air Force Eastern Test Range (AFETR). Debris objects in space refer to the collection of defunct objects orbiting the Earth. Examples of debris include non-operational satellites, rocket bodies, and fragments generated from explosions, collisions, or faulty payload assembly.

Loading next visibility...
Identifier
41623, 2016-041B
Orbit
HEO
Country
Flag of USUS
Related business
Manufacturer
LMSS Denver
Mission
Spacecraft
Bus & Motor
CENTAUR SEC, RL10C-1
Mass
~2,020 kg wet, 2,020 kg dry
Launch date (UTC)
2016-06-24 (9 years ago)
Launch vehicle
Unknown
Launch site
Air Force Eastern Test Range (AFETR)
Object type
Payload
Rocket body
Debris
Shape & HBR
Cyl + 1 Nozzle, 5.8 m
Radar Cross Section
32.260 m², Large (>1 m²)

Expand to show TLE details & history
Last TLE update: 12 hours ago

TLE from 12 hours ago
0 ATLAS 5 CENTAUR R/B
1 41623U 16041B   25308.09822971  .00000139  00000-0  00000-0 0  9997
2 41623  19.1593  50.1715 6087849 253.5020  34.8839  2.09535246 71687
Epoch: 2025-11-04T02:21Z
TLE epoch observation values (Epoch: 2025-11-04T02:21:27.046Z)
Latitude
-0.00002°
Longitude
-28.87349°
Altitude
13,279.027 km
Speed
5.01 km/s
True Right ascension
03h 20m 19s
True Declination
0° 00' 00"
Sunlit
Object was in full shadow at epoch
Visualization orbit readout
Latitude
Unknown
Longitude
Unknown
Altitude
Unknown
Speed
Unknown
Apparent Right ascension
Unknown
Apparent Declination
Unknown
Sunlit
N/A
Visualization observer readout
Local Sidereal Time
09:59:47
Azimuth
Unknown
Elevation
Unknown
Doppler factor
Unknown
Orbital elements
Apogee altitude
35,127.807 km
Perigee altitude
3,715.041 km
Semi-major axis
25,799.561 km
Eccentricity
0.60878
Inclination
19.1593°
RAAN
50.1715°
Arg. of periapsis
253.502°
True anomaly
106.61416°
Mean anomaly
34.8839°
Eccentric anomaly
66.98931°
Mean motion
0.52375 °/min
Orbital period
687.35 mins
BSTAR
0
Loading maneuver chart data...
Computing Atmospheric mass density...
Loading historical data...
Loading historical data...
Loading historical data...
Loading historical data...
Loading historical data...
Loading historical data...
Loading historical data...
Other satellites on launch #41 in the year 2016 (2016-06-24 UTC)

Documentation

Showing up to 5 results
|